Time,TemperatureF,DewpointF,PressureIn,WindDirection,WindDirectionDegrees,WindSpeedMPH,WindSpeedGustMPH,Humidity,HourlyPrecipIn,Conditions,Clouds,dailyrainin,SoftwareType,DateUTC
2014-12-27 00:04:00,54.2,52.5,30.04,ENE,60,6.0,-999.0,94,0.00,,,0.00,Wunderground v.1.15,2014-12-27 06:04:00,
2014-12-27 00:10:00,54.3,52.6,30.04,East,82,5.0,-999.0,94,0.00,,,0.00,Wunderground v.1.15,2014-12-27 06:10:00,
2014-12-27 00:16:00,54.2,52.5,30.03,East,96,8.0,-999.0,94,0.00,,,0.00,Wunderground v.1.15,2014-12-27 06:16:00,
2014-12-27 00:21:00,54.3,52.6,30.03,East,87,6.0,-999.0,94,0.00,,,0.00,Wunderground v.1.15,2014-12-27 06:21:00,
2014-12-27 00:27:00,54.4,52.7,30.03,East,99,8.0,-999.0,94,0.00,,,0.00,Wunderground v.1.15,2014-12-27 06:27:00,
2014-12-27 00:33:00,54.5,52.8,30.03,East,86,4.0,-999.0,94,0.00,,,0.00,Wunderground v.1.15,2014-12-27 06:33:00,
2014-12-27 00:38:00,54.5,52.8,30.04,North,360,3.0,-999.0,94,0.00,,,0.00,Wunderground v.1.15,2014-12-27 06:38:00,
2014-12-27 00:44:00,54.4,52.7,30.03,NE,34,1.0,-999.0,94,0.00,,,0.00,Wunderground v.1.15,2014-12-27 06:44:00,
2014-12-27 00:50:00,54.5,52.8,30.03,ENE,71,1.0,-999.0,94,0.00,,,0.00,Wunderground v.1.15,2014-12-27 06:50:00,
2014-12-27 00:56:00,54.5,52.8,30.03,NNE,21,4.0,-999.0,94,0.00,,,0.00,Wunderground v.1.15,2014-12-27 06:56:00,
2014-12-27 01:02:00,54.5,52.8,30.03,NE,38,3.0,-999.0,94,0.00,,,0.00,Wunderground v.1.15,2014-12-27 07:02:00,
2014-12-27 01:07:00,54.4,52.7,30.03,NNE,32,5.0,-999.0,94,0.00,,,0.00,Wunderground v.1.15,2014-12-27 07:07:00,
2014-12-27 01:13:00,54.4,52.7,30.02,NE,44,5.0,-999.0,94,0.00,,,0.00,Wunderground v.1.15,2014-12-27 07:13:00,
2014-12-27 01:19:00,54.4,52.7,30.03,NE,55,4.0,-999.0,94,0.00,,,0.00,Wunderground v.1.15,2014-12-27 07:19:00,
2014-12-27 01:25:00,54.4,52.7,30.02,ENE,69,2.0,-999.0,94,0.00,,,0.00,Wunderground v.1.15,2014-12-27 07:25:00,
2014-12-27 01:30:00,54.5,52.8,30.02,ENE,69,2.0,-999.0,94,0.00,,,0.00,Wunderground v.1.15,2014-12-27 07:30:00,
2014-12-27 01:36:00,54.4,52.7,30.02,ENE,69,5.0,-999.0,94,0.00,,,0.00,Wunderground v.1.15,2014-12-27 07:36:00,
2014-12-27 01:42:00,54.4,52.7,30.03,ENE,69,1.0,-999.0,94,0.00,,,0.00,Wunderground v.1.15,2014-12-27 07:42:00,
2014-12-27 01:48:00,54.4,52.7,30.03,ENE,69,1.0,-999.0,94,0.00,,,0.00,Wunderground v.1.15,2014-12-27 07:48:00,
2014-12-27 01:54:00,54.4,52.7,30.03,NE,34,2.0,-999.0,94,0.00,,,0.00,Wunderground v.1.15,2014-12-27 07:54:00,
2014-12-27 02:00:00,54.4,52.7,30.04,NE,34,3.0,-999.0,94,0.00,,,0.00,Wunderground v.1.15,2014-12-27 08:00:00,
2014-12-27 02:05:00,54.4,52.7,30.04,North,360,4.0,-999.0,94,0.00,,,0.00,Wunderground v.1.15,2014-12-27 08:05:00,
2014-12-27 02:10:00,54.4,52.7,30.04,NNW,338,4.0,-999.0,94,0.00,,,0.00,Wunderground v.1.15,2014-12-27 08:10:00,
2014-12-27 02:15:00,54.4,52.7,30.03,NNW,338,2.0,-999.0,94,0.00,,,0.00,Wunderground v.1.15,2014-12-27 08:15:00,
2014-12-27 02:20:00,54.4,52.7,30.04,NNW,338,2.0,-999.0,94,0.00,,,0.00,Wunderground v.1.15,2014-12-27 08:20:00,
2014-12-27 02:25:00,54.4,52.7,30.04,North,5,4.0,-999.0,94,0.00,,,0.00,Wunderground v.1.15,2014-12-27 08:25:00,
2014-12-27 02:30:00,54.4,52.7,30.03,NE,49,4.0,-999.0,94,0.00,,,0.00,Wunderground v.1.15,2014-12-27 08:30:00,
2014-12-27 02:35:00,54.4,52.7,30.03,NE,56,4.0,-999.0,94,0.00,,,0.00,Wunderground v.1.15,2014-12-27 08:35:00,
2014-12-27 02:40:00,54.3,52.6,30.04,East,86,2.0,-999.0,94,0.00,,,0.00,Wunderground v.1.15,2014-12-27 08:40:00,
2014-12-27 02:45:00,54.2,52.5,30.03,East,86,2.0,-999.0,94,0.00,,,0.00,Wunderground v.1.15,2014-12-27 08:45:00,
2014-12-27 02:50:00,54.2,52.5,30.04,East,86,0.0,-999.0,94,0.00,,,0.00,Wunderground v.1.15,2014-12-27 08:50:00,
2014-12-27 02:55:00,54.1,52.4,30.05,WSW,251,12.0,-999.0,94,0.00,,,0.00,Wunderground v.1.15,2014-12-27 08:55:00,
2014-12-27 03:00:00,53.2,51.5,30.05,WNW,283,8.0,-999.0,94,0.00,,,0.01,Wunderground v.1.15,2014-12-27 09:00:00,
2014-12-27 03:05:00,52.4,51.0,30.05,NW,304,5.0,-999.0,95,0.00,,,0.01,Wunderground v.1.15,2014-12-27 09:05:00,
2014-12-27 03:10:00,52.0,50.6,30.05,WNW,299,8.0,-999.0,95,0.00,,,0.01,Wunderground v.1.15,2014-12-27 09:10:00,
2014-12-27 03:15:00,51.8,50.4,30.05,NW,305,4.0,-999.0,95,0.00,,,0.01,Wunderground v.1.15,2014-12-27 09:15:00,
2014-12-27 03:20:00,51.7,50.6,30.06,West,266,4.0,-999.0,96,0.00,,,0.01,Wunderground v.1.15,2014-12-27 09:20:00,
2014-12-27 03:25:00,51.7,50.6,30.06,West,263,4.0,-999.0,96,0.00,,,0.01,Wunderground v.1.15,2014-12-27 09:25:00,
2014-12-27 03:30:00,51.5,50.4,30.07,WSW,248,8.0,-999.0,96,0.00,,,0.01,Wunderground v.1.15,2014-12-27 09:30:00,
2014-12-27 03:35:00,50.9,49.8,30.06,WSW,244,10.0,-999.0,96,0.00,,,0.01,Wunderground v.1.15,2014-12-27 09:35:00,
2014-12-27 03:40:00,50.2,49.1,30.07,West,266,10.0,-999.0,96,0.00,,,0.01,Wunderground v.1.15,2014-12-27 09:40:00,
2014-12-27 03:45:00,49.2,47.8,30.08,West,265,11.0,-999.0,95,0.00,,,0.01,Wunderground v.1.15,2014-12-27 09:45:00,
2014-12-27 03:50:00,48.4,47.0,30.08,West,269,20.0,-999.0,95,0.00,,,0.01,Wunderground v.1.15,2014-12-27 09:50:00,
2014-12-27 03:55:00,47.8,46.4,30.07,West,263,8.0,-999.0,95,0.00,,,0.02,Wunderground v.1.15,2014-12-27 09:55:00,
2014-12-27 04:00:00,47.4,46.3,30.07,West,275,10.0,-999.0,96,0.00,,,0.02,Wunderground v.1.15,2014-12-27 10:00:00,
2014-12-27 04:05:00,47.0,45.9,30.07,WNW,292,9.0,-999.0,96,0.00,,,0.02,Wunderground v.1.15,2014-12-27 10:05:00,
2014-12-27 04:10:00,46.8,45.7,30.08,WSW,254,8.0,-999.0,96,0.00,,,0.02,Wunderground v.1.15,2014-12-27 10:10:00,
2014-12-27 04:15:00,46.5,45.4,30.08,West,266,12.0,-999.0,96,0.00,,,0.02,Wunderground v.1.15,2014-12-27 10:15:00,
2014-12-27 04:20:00,46.3,45.2,30.08,West,259,9.0,-999.0,96,0.00,,,0.02,Wunderground v.1.15,2014-12-27 10:20:00,
2014-12-27 04:25:00,46.1,45.0,30.08,West,262,8.0,-999.0,96,0.00,,,0.02,Wunderground v.1.15,2014-12-27 10:25:00,
2014-12-27 04:30:00,45.9,44.8,30.09,West,261,12.0,-999.0,96,0.00,,,0.03,Wunderground v.1.15,2014-12-27 10:30:00,
2014-12-27 04:35:00,45.7,44.6,30.09,WSW,246,14.0,-999.0,96,0.00,,,0.03,Wunderground v.1.15,2014-12-27 10:35:00,
2014-12-27 04:40:00,45.5,44.4,30.10,WNW,284,14.0,-999.0,96,0.00,,,0.03,Wunderground v.1.15,2014-12-27 10:40:00,
2014-12-27 04:45:00,45.4,44.3,30.10,West,264,10.0,-999.0,96,0.00,,,0.03,Wunderground v.1.15,2014-12-27 10:45:00,
2014-12-27 04:50:00,45.4,44.3,30.10,West,265,14.0,-999.0,96,0.00,,,0.03,Wunderground v.1.15,2014-12-27 10:50:00,
2014-12-27 04:55:00,45.3,44.2,30.11,WNW,282,11.0,-999.0,96,0.00,,,0.03,Wunderground v.1.15,2014-12-27 10:55:00,
2014-12-27 05:00:00,45.3,44.2,30.10,WNW,284,9.0,-999.0,96,0.00,,,0.03,Wunderground v.1.15,2014-12-27 11:00:00,
2014-12-27 05:05:00,45.2,44.1,30.11,WNW,288,5.0,-999.0,96,0.00,,,0.03,Wunderground v.1.15,2014-12-27 11:05:00,
2014-12-27 05:10:00,45.2,44.1,30.11,West,271,9.0,-999.0,96,0.00,,,0.03,Wunderground v.1.15,2014-12-27 11:10:00,
2014-12-27 05:15:00,45.2,44.1,30.11,West,267,7.0,-999.0,96,0.00,,,0.03,Wunderground v.1.15,2014-12-27 11:15:00,
2014-12-27 05:20:00,45.1,44.0,30.11,West,264,11.0,-999.0,96,0.00,,,0.04,Wunderground v.1.15,2014-12-27 11:20:00,
2014-12-27 05:25:00,45.1,44.0,30.13,West,268,8.0,-999.0,96,0.00,,,0.04,Wunderground v.1.15,2014-12-27 11:25:00,
2014-12-27 05:30:00,45.0,43.9,30.13,WSW,254,11.0,-999.0,96,0.00,,,0.04,Wunderground v.1.15,2014-12-27 11:30:00,
2014-12-27 05:35:00,44.7,43.6,30.14,WSW,257,12.0,-999.0,96,0.00,,,0.04,Wunderground v.1.15,2014-12-27 11:35:00,
2014-12-27 05:40:00,44.4,43.3,30.13,West,281,9.0,-999.0,96,0.00,,,0.04,Wunderground v.1.15,2014-12-27 11:40:00,
2014-12-27 05:45:00,44.2,43.1,30.13,WNW,285,10.0,-999.0,96,0.00,,,0.05,Wunderground v.1.15,2014-12-27 11:45:00,
2014-12-27 05:50:00,44.0,42.7,30.14,West,279,6.0,-999.0,95,0.00,,,0.05,Wunderground v.1.15,2014-12-27 11:50:00,
2014-12-27 05:55:00,43.8,42.5,30.15,WNW,294,8.0,-999.0,95,0.00,,,0.05,Wunderground v.1.15,2014-12-27 11:55:00,
2014-12-27 06:00:00,43.6,42.5,30.16,WNW,286,10.0,-999.0,96,0.00,,,0.05,Wunderground v.1.15,2014-12-27 12:00:00,
2014-12-27 06:05:00,43.5,42.2,30.16,West,274,7.0,-999.0,95,0.00,,,0.05,Wunderground v.1.15,2014-12-27 12:05:00,
2014-12-27 06:10:00,43.4,42.1,30.15,West,275,10.0,-999.0,95,0.00,,,0.05,Wunderground v.1.15,2014-12-27 12:10:00,
2014-12-27 06:15:00,43.3,42.0,30.16,WNW,300,5.0,-999.0,95,0.00,,,0.05,Wunderground v.1.15,2014-12-27 12:15:00,
2014-12-27 06:20:00,43.1,41.8,30.16,WNW,286,8.0,-999.0,95,0.00,,,0.05,Wunderground v.1.15,2014-12-27 12:20:00,
2014-12-27 06:25:00,43.0,41.7,30.16,WSW,247,9.0,-999.0,95,0.00,,,0.05,Wunderground v.1.15,2014-12-27 12:25:00,
2014-12-27 06:30:00,42.9,41.6,30.17,WNW,284,5.0,-999.0,95,0.00,,,0.05,Wunderground v.1.15,2014-12-27 12:30:00,
2014-12-27 06:35:00,42.8,41.5,30.18,WNW,288,7.0,-999.0,95,0.00,,,0.05,Wunderground v.1.15,2014-12-27 12:35:00,
2014-12-27 06:40:00,42.7,41.4,30.18,West,271,8.0,-999.0,95,0.00,,,0.05,Wunderground v.1.15,2014-12-27 12:40:00,
2014-12-27 06:45:00,42.5,41.2,30.19,WNW,298,8.0,-999.0,95,0.00,,,0.05,Wunderground v.1.15,2014-12-27 12:45:00,
2014-12-27 06:50:00,42.2,40.9,30.20,West,267,10.0,-999.0,95,0.00,,,0.05,Wunderground v.1.15,2014-12-27 12:50:00,
2014-12-27 06:55:00,42.0,40.7,30.20,West,281,5.0,-999.0,95,0.00,,,0.05,Wunderground v.1.15,2014-12-27 12:55:00,
2014-12-27 07:00:00,41.8,40.2,30.21,West,265,8.0,-999.0,94,0.00,,,0.05,Wunderground v.1.15,2014-12-27 13:00:00,
2014-12-27 07:05:00,41.6,40.0,30.21,West,276,10.0,-999.0,94,0.00,,,0.05,Wunderground v.1.15,2014-12-27 13:05:00,
2014-12-27 07:10:00,41.4,39.8,30.21,WNW,294,8.0,-999.0,94,0.00,,,0.05,Wunderground v.1.15,2014-12-27 13:10:00,
2014-12-27 07:15:00,41.2,39.6,30.22,West,275,9.0,-999.0,94,0.00,,,0.05,Wunderground v.1.15,2014-12-27 13:15:00,
2014-12-27 07:20:00,41.1,39.5,30.22,NW,304,12.0,-999.0,94,0.00,,,0.05,Wunderground v.1.15,2014-12-27 13:20:00,
2014-12-27 07:25:00,41.0,39.7,30.22,West,273,9.0,-999.0,95,0.00,,,0.05,Wunderground v.1.15,2014-12-27 13:25:00,
2014-12-27 07:30:00,41.0,39.7,30.21,WNW,302,9.0,-999.0,95,0.00,,,0.05,Wunderground v.1.15,2014-12-27 13:30:00,
2014-12-27 07:35:00,40.9,39.3,30.21,West,259,7.0,-999.0,94,0.00,,,0.05,Wunderground v.1.15,2014-12-27 13:35:00,
2014-12-27 07:40:00,40.8,39.2,30.22,NW,321,8.0,-999.0,94,0.00,,,0.05,Wunderground v.1.15,2014-12-27 13:40:00,
2014-12-27 07:45:00,40.8,39.2,30.22,WSW,257,8.0,-999.0,94,0.00,,,0.05,Wunderground v.1.15,2014-12-27 13:45:00,
2014-12-27 07:50:00,40.7,39.1,30.22,West,273,4.0,-999.0,94,0.00,,,0.05,Wunderground v.1.15,2014-12-27 13:50:00,
2014-12-27 07:55:00,40.7,39.1,30.22,West,262,9.0,-999.0,94,0.00,,,0.05,Wunderground v.1.15,2014-12-27 13:55:00,
2014-12-27 08:00:00,40.7,39.1,30.22,West,263,8.0,-999.0,94,0.00,,,0.05,Wunderground v.1.15,2014-12-27 14:00:00,
2014-12-27 08:05:00,40.7,39.1,30.22,WSW,250,5.0,-999.0,94,0.00,,,0.05,Wunderground v.1.15,2014-12-27 14:05:00,
2014-12-27 08:11:00,40.6,39.0,30.22,WSW,253,9.0,-999.0,94,0.00,,,0.05,Wunderground v.1.15,2014-12-27 14:11:00,
2014-12-27 08:16:00,40.6,39.0,30.23,WSW,247,7.0,-999.0,94,0.00,,,0.05,Wunderground v.1.15,2014-12-27 14:16:00,
2014-12-27 08:21:00,40.6,39.0,30.24,WSW,248,6.0,-999.0,94,0.00,,,0.05,Wunderground v.1.15,2014-12-27 14:21:00,
2014-12-27 08:26:00,40.6,39.0,30.24,West,270,6.0,-999.0,94,0.00,,,0.05,Wunderground v.1.15,2014-12-27 14:26:00,
2014-12-27 08:31:00,40.6,39.0,30.24,West,262,7.0,-999.0,94,0.00,,,0.05,Wunderground v.1.15,2014-12-27 14:31:00,
2014-12-27 08:36:00,40.6,39.3,30.24,WSW,250,5.0,-999.0,95,0.00,,,0.05,Wunderground v.1.15,2014-12-27 14:36:00,
2014-12-27 08:41:00,40.5,38.9,30.25,West,273,9.0,-999.0,94,0.00,,,0.05,Wunderground v.1.15,2014-12-27 14:41:00,
2014-12-27 08:46:00,40.5,38.9,30.25,WNW,290,5.0,-999.0,94,0.00,,,0.05,Wunderground v.1.15,2014-12-27 14:46:00,
2014-12-27 08:51:00,40.5,39.2,30.25,West,271,4.0,-999.0,95,0.00,,,0.05,Wunderground v.1.15,2014-12-27 14:51:00,
2014-12-27 08:56:00,40.5,38.9,30.25,West,270,6.0,-999.0,94,0.00,,,0.05,Wunderground v.1.15,2014-12-27 14:56:00,
2014-12-27 09:01:00,40.5,38.9,30.25,West,266,7.0,-999.0,94,0.00,,,0.05,Wunderground v.1.15,2014-12-27 15:01:00,
2014-12-27 09:06:00,40.5,38.9,30.25,NW,307,2.0,-999.0,94,0.00,,,0.05,Wunderground v.1.15,2014-12-27 15:06:00,
2014-12-27 09:11:00,40.5,38.9,30.25,West,275,6.0,-999.0,94,0.00,,,0.05,Wunderground v.1.15,2014-12-27 15:11:00,
2014-12-27 09:16:00,40.4,38.8,30.26,West,268,9.0,-999.0,94,0.00,,,0.05,Wunderground v.1.15,2014-12-27 15:16:00,
2014-12-27 09:21:00,40.4,38.8,30.26,West,262,8.0,-999.0,94,0.00,,,0.05,Wunderground v.1.15,2014-12-27 15:21:00,
2014-12-27 09:26:00,40.4,38.8,30.27,WSW,251,6.0,-999.0,94,0.00,,,0.05,Wunderground v.1.15,2014-12-27 15:26:00,
2014-12-27 09:31:00,40.4,38.8,30.27,West,280,5.0,-999.0,94,0.00,,,0.05,Wunderground v.1.15,2014-12-27 15:31:00,
2014-12-27 09:36:00,40.4,38.8,30.27,West,266,5.0,-999.0,94,0.00,,,0.05,Wunderground v.1.15,2014-12-27 15:36:00,
2014-12-27 09:41:00,40.5,38.9,30.27,West,269,8.0,-999.0,94,0.00,,,0.05,Wunderground v.1.15,2014-12-27 15:41:00,
2014-12-27 09:46:00,40.7,39.1,30.27,West,263,6.0,-999.0,94,0.00,,,0.05,Wunderground v.1.15,2014-12-27 15:46:00,
2014-12-27 09:51:00,40.7,39.1,30.27,West,269,7.0,-999.0,94,0.00,,,0.06,Wunderground v.1.15,2014-12-27 15:51:00,
2014-12-27 09:56:00,40.7,39.1,30.27,WNW,285,4.0,-999.0,94,0.00,,,0.06,Wunderground v.1.15,2014-12-27 15:56:00,
2014-12-27 10:01:00,40.6,39.0,30.28,WNW,294,5.0,-999.0,94,0.00,,,0.06,Wunderground v.1.15,2014-12-27 16:01:00,
2014-12-27 10:06:00,40.6,39.0,30.27,West,271,4.0,-999.0,94,0.00,,,0.06,Wunderground v.1.15,2014-12-27 16:06:00,
2014-12-27 10:11:00,40.7,39.1,30.28,West,265,7.0,-999.0,94,0.00,,,0.06,Wunderground v.1.15,2014-12-27 16:11:00,
2014-12-27 10:16:00,40.6,39.0,30.28,WNW,290,3.0,-999.0,94,0.00,,,0.06,Wunderground v.1.15,2014-12-27 16:16:00,
2014-12-27 10:21:00,40.5,38.9,30.28,West,273,5.0,-999.0,94,0.00,,,0.06,Wunderground v.1.15,2014-12-27 16:21:00,
2014-12-27 10:26:00,40.5,38.9,30.28,WNW,290,6.0,-999.0,94,0.00,,,0.06,Wunderground v.1.15,2014-12-27 16:26:00,
2014-12-27 10:31:00,40.5,38.9,30.28,WNW,284,7.0,-999.0,94,0.00,,,0.06,Wunderground v.1.15,2014-12-27 16:31:00,
2014-12-27 10:36:00,40.5,38.6,30.28,WNW,286,3.0,-999.0,93,0.00,,,0.06,Wunderground v.1.15,2014-12-27 16:36:00,
2014-12-27 10:41:00,40.5,38.6,30.28,WNW,297,5.0,-999.0,93,0.00,,,0.06,Wunderground v.1.15,2014-12-27 16:41:00,
2014-12-27 10:46:00,40.6,38.5,30.28,WSW,245,7.0,-999.0,92,0.00,,,0.06,Wunderground v.1.15,2014-12-27 16:46:00,
2014-12-27 10:51:00,40.5,37.8,30.28,West,277,9.0,-999.0,90,0.00,,,0.06,Wunderground v.1.15,2014-12-27 16:51:00,
2014-12-27 10:56:00,40.4,37.4,30.28,West,269,5.0,-999.0,89,0.00,,,0.06,Wunderground v.1.15,2014-12-27 16:56:00,
2014-12-27 11:01:00,40.4,37.4,30.28,WNW,296,8.0,-999.0,89,0.00,,,0.06,Wunderground v.1.15,2014-12-27 17:01:00,
2014-12-27 11:06:00,40.4,37.7,30.27,NNW,327,10.0,-999.0,90,0.00,,,0.06,Wunderground v.1.15,2014-12-27 17:06:00,
2014-12-27 11:11:00,40.2,36.9,30.27,West,273,6.0,-999.0,88,0.00,,,0.06,Wunderground v.1.15,2014-12-27 17:11:00,
2014-12-27 11:17:00,40.1,36.8,30.27,West,281,7.0,-999.0,88,0.00,,,0.06,Wunderground v.1.15,2014-12-27 17:17:00,
2014-12-27 11:22:00,40.1,37.1,30.26,NNW,344,6.0,-999.0,89,0.00,,,0.06,Wunderground v.1.15,2014-12-27 17:22:00,
2014-12-27 11:27:00,40.0,37.0,30.26,WNW,302,4.0,-999.0,89,0.00,,,0.06,Wunderground v.1.15,2014-12-27 17:27:00,
2014-12-27 11:32:00,40.0,37.0,30.26,WNW,300,8.0,-999.0,89,0.00,,,0.06,Wunderground v.1.15,2014-12-27 17:32:00,
2014-12-27 11:37:00,40.0,37.0,30.25,WNW,298,5.0,-999.0,89,0.00,,,0.06,Wunderground v.1.15,2014-12-27 17:37:00,
2014-12-27 11:42:00,40.0,37.0,30.25,WNW,292,6.0,-999.0,89,0.00,,,0.06,Wunderground v.1.15,2014-12-27 17:42:00,
2014-12-27 11:47:00,40.0,37.0,30.24,NNW,329,6.0,-999.0,89,0.00,,,0.06,Wunderground v.1.15,2014-12-27 17:47:00,
2014-12-27 11:52:00,40.0,37.0,30.24,WNW,300,5.0,-999.0,89,0.00,,,0.06,Wunderground v.1.15,2014-12-27 17:52:00,
2014-12-27 11:57:00,40.0,37.0,30.24,NW,322,4.0,-999.0,89,0.00,,,0.06,Wunderground v.1.15,2014-12-27 17:57:00,
2014-12-27 12:02:00,40.0,37.0,30.24,WNW,303,8.0,-999.0,89,0.00,,,0.06,Wunderground v.1.15,2014-12-27 18:02:00,
2014-12-27 12:07:00,40.0,37.3,30.24,NW,315,4.0,-999.0,90,0.00,,,0.06,Wunderground v.1.15,2014-12-27 18:07:00,
2014-12-27 12:12:00,39.9,37.2,30.24,West,262,5.0,-999.0,90,0.00,,,0.06,Wunderground v.1.15,2014-12-27 18:12:00,
2014-12-27 12:17:00,39.8,37.4,30.23,WNW,293,6.0,-999.0,91,0.00,,,0.06,Wunderground v.1.15,2014-12-27 18:17:00,
2014-12-27 12:22:00,39.6,37.2,30.23,WNW,300,5.0,-999.0,91,0.00,,,0.06,Wunderground v.1.15,2014-12-27 18:22:00,
2014-12-27 12:27:00,39.6,37.2,30.22,NW,313,6.0,-999.0,91,0.00,,,0.06,Wunderground v.1.15,2014-12-27 18:27:00,
2014-12-27 12:32:00,39.6,37.2,30.22,NW,317,5.0,-999.0,91,0.00,,,0.06,Wunderground v.1.15,2014-12-27 18:32:00,
2014-12-27 12:37:00,39.6,37.2,30.22,West,277,8.0,-999.0,91,0.00,,,0.06,Wunderground v.1.15,2014-12-27 18:37:00,
2014-12-27 12:42:00,39.5,37.1,30.22,West,272,5.0,-999.0,91,0.00,,,0.06,Wunderground v.1.15,2014-12-27 18:42:00,
2014-12-27 12:47:00,39.6,37.2,30.22,NW,314,7.0,-999.0,91,0.00,,,0.06,Wunderground v.1.15,2014-12-27 18:47:00,
2014-12-27 12:52:00,39.6,37.2,30.21,WNW,297,5.0,-999.0,91,0.00,,,0.06,Wunderground v.1.15,2014-12-27 18:52:00,
2014-12-27 12:57:00,39.6,37.2,30.21,NW,309,7.0,-999.0,91,0.00,,,0.06,Wunderground v.1.15,2014-12-27 18:57:00,
2014-12-27 13:02:00,39.5,37.1,30.20,WNW,290,9.0,-999.0,91,0.00,,,0.06,Wunderground v.1.15,2014-12-27 19:02:00,
2014-12-27 13:07:00,39.3,36.9,30.20,WNW,292,5.0,-999.0,91,0.00,,,0.06,Wunderground v.1.15,2014-12-27 19:07:00,
2014-12-27 13:12:00,39.3,36.9,30.21,WNW,302,7.0,-999.0,91,0.00,,,0.06,Wunderground v.1.15,2014-12-27 19:12:00,
2014-12-27 13:17:00,39.2,36.8,30.21,West,281,9.0,-999.0,91,0.00,,,0.06,Wunderground v.1.15,2014-12-27 19:17:00,
2014-12-27 13:22:00,39.1,36.7,30.21,WNW,298,7.0,-999.0,91,0.00,,,0.06,Wunderground v.1.15,2014-12-27 19:22:00,
2014-12-27 13:27:00,39.1,36.4,30.22,West,259,10.0,-999.0,90,0.00,,,0.06,Wunderground v.1.15,2014-12-27 19:27:00,
2014-12-27 13:32:00,39.0,36.3,30.21,NW,304,7.0,-999.0,90,0.00,,,0.06,Wunderground v.1.15,2014-12-27 19:32:00,
2014-12-27 13:37:00,39.0,36.3,30.22,West,273,8.0,-999.0,90,0.00,,,0.06,Wunderground v.1.15,2014-12-27 19:37:00,
2014-12-27 13:42:00,39.0,36.3,30.22,West,266,6.0,-999.0,90,0.00,,,0.06,Wunderground v.1.15,2014-12-27 19:42:00,
2014-12-27 13:47:00,39.0,36.3,30.21,West,264,7.0,-999.0,90,0.00,,,0.06,Wunderground v.1.15,2014-12-27 19:47:00,
2014-12-27 13:52:00,39.1,36.7,30.21,West,271,7.0,-999.0,91,0.00,,,0.06,Wunderground v.1.15,2014-12-27 19:52:00,
2014-12-27 13:57:00,39.1,36.4,30.22,WNW,284,8.0,-999.0,90,0.00,,,0.06,Wunderground v.1.15,2014-12-27 19:57:00,
2014-12-27 14:02:00,39.1,36.4,30.22,West,275,6.0,-999.0,90,0.00,,,0.06,Wunderground v.1.15,2014-12-27 20:02:00,
2014-12-27 14:07:00,38.9,36.2,30.22,West,270,5.0,-999.0,90,0.00,,,0.06,Wunderground v.1.15,2014-12-27 20:07:00,
2014-12-27 14:12:00,38.9,36.2,30.22,West,273,5.0,-999.0,90,0.00,,,0.06,Wunderground v.1.15,2014-12-27 20:12:00,
2014-12-27 14:17:00,38.9,36.5,30.20,West,280,4.0,-999.0,91,0.00,,,0.06,Wunderground v.1.15,2014-12-27 20:17:00,
2014-12-27 14:22:00,38.9,36.5,30.22,WSW,250,6.0,-999.0,91,0.00,,,0.07,Wunderground v.1.15,2014-12-27 20:22:00,
2014-12-27 14:27:00,38.8,36.7,30.21,NW,304,6.0,-999.0,92,0.09,,,0.08,Wunderground v.1.15,2014-12-27 20:27:00,
2014-12-27 14:32:00,38.6,36.5,30.21,NW,306,6.0,-999.0,92,0.09,,,0.08,Wunderground v.1.15,2014-12-27 20:32:00,
2014-12-27 14:37:00,38.5,36.4,30.22,West,270,7.0,-999.0,92,0.06,,,0.08,Wunderground v.1.15,2014-12-27 20:37:00,
2014-12-27 14:42:00,38.4,36.6,30.22,West,271,5.0,-999.0,93,0.04,,,0.08,Wunderground v.1.15,2014-12-27 20:42:00,
2014-12-27 14:47:00,38.3,36.5,30.23,WSW,257,9.0,-999.0,93,0.04,,,0.09,Wunderground v.1.15,2014-12-27 20:47:00,
2014-12-27 14:52:00,38.2,36.6,30.23,West,269,9.0,-999.0,94,0.07,,,0.10,Wunderground v.1.15,2014-12-27 20:52:00,
2014-12-27 14:57:00,38.1,36.5,30.22,WNW,284,6.0,-999.0,94,0.07,,,0.10,Wunderground v.1.15,2014-12-27 20:57:00,
2014-12-27 15:02:00,38.0,36.4,30.22,WNW,290,11.0,-999.0,94,0.07,,,0.11,Wunderground v.1.15,2014-12-27 21:02:00,
2014-12-27 15:07:00,37.8,36.2,30.20,WNW,301,6.0,-999.0,94,0.07,,,0.11,Wunderground v.1.15,2014-12-27 21:07:00,
2014-12-27 15:12:00,37.7,35.9,30.20,NW,323,9.0,-999.0,93,0.05,,,0.12,Wunderground v.1.15,2014-12-27 21:12:00,
2014-12-27 15:17:00,37.5,35.7,30.21,NW,311,9.0,-999.0,93,0.23,,,0.13,Wunderground v.1.15,2014-12-27 21:17:00,
2014-12-27 15:22:00,37.3,35.7,30.21,NW,322,7.0,-999.0,94,0.19,,,0.15,Wunderground v.1.15,2014-12-27 21:22:00,
2014-12-27 15:27:00,37.3,35.7,30.22,West,266,6.0,-999.0,94,0.19,,,0.16,Wunderground v.1.15,2014-12-27 21:27:00,
2014-12-27 15:32:00,37.2,35.9,30.20,NW,317,7.0,-999.0,95,0.16,,,0.17,Wunderground v.1.15,2014-12-27 21:32:00,
2014-12-27 15:37:00,37.2,35.9,30.22,NW,304,8.0,-999.0,95,0.08,,,0.18,Wunderground v.1.15,2014-12-27 21:37:00,
2014-12-27 15:42:00,37.1,35.8,30.22,WNW,288,5.0,-999.0,95,0.15,,,0.19,Wunderground v.1.15,2014-12-27 21:42:00,
2014-12-27 15:47:00,37.0,35.7,30.20,WNW,284,6.0,-999.0,95,0.08,,,0.19,Wunderground v.1.15,2014-12-27 21:47:00,
2014-12-27 15:52:00,37.0,35.7,30.24,WSW,257,6.0,-999.0,95,0.05,,,0.19,Wunderground v.1.15,2014-12-27 21:52:00,
2014-12-27 15:57:00,37.0,35.7,30.23,WNW,287,5.0,-999.0,95,0.00,,,0.19,Wunderground v.1.15,2014-12-27 21:57:00,
2014-12-27 16:02:00,37.0,35.7,30.22,West,269,5.0,-999.0,95,0.00,,,0.19,Wunderground v.1.15,2014-12-27 22:02:00,
2014-12-27 16:07:00,37.0,35.7,30.22,WNW,298,4.0,-999.0,95,0.00,,,0.20,Wunderground v.1.15,2014-12-27 22:07:00,
2014-12-27 16:12:00,36.9,35.6,30.22,NW,307,10.0,-999.0,95,0.00,,,0.20,Wunderground v.1.15,2014-12-27 22:12:00,
2014-12-27 16:17:00,36.8,35.5,30.22,WNW,292,9.0,-999.0,95,0.00,,,0.20,Wunderground v.1.15,2014-12-27 22:17:00,
2014-12-27 16:22:00,36.7,35.4,30.23,West,273,5.0,-999.0,95,0.00,,,0.20,Wunderground v.1.15,2014-12-27 22:22:00,
2014-12-27 16:27:00,36.6,35.3,30.24,WSW,254,6.0,-999.0,95,0.00,,,0.20,Wunderground v.1.15,2014-12-27 22:27:00,
2014-12-27 16:32:00,36.5,35.2,30.24,WNW,294,5.0,-999.0,95,0.00,,,0.20,Wunderground v.1.15,2014-12-27 22:32:00,
2014-12-27 16:37:00,36.5,34.9,30.24,WNW,296,4.0,-999.0,94,0.00,,,0.20,Wunderground v.1.15,2014-12-27 22:37:00,
2014-12-27 16:42:00,36.5,34.9,30.24,NW,312,10.0,-999.0,94,0.00,,,0.20,Wunderground v.1.15,2014-12-27 22:42:00,
2014-12-27 16:47:00,36.5,34.9,30.25,West,279,5.0,-999.0,94,0.00,,,0.20,Wunderground v.1.15,2014-12-27 22:47:00,
2014-12-27 16:52:00,36.5,35.2,30.24,WNW,284,6.0,-999.0,95,0.00,,,0.20,Wunderground v.1.15,2014-12-27 22:52:00,
2014-12-27 16:57:00,36.4,35.1,30.25,WNW,286,5.0,-999.0,95,0.00,,,0.20,Wunderground v.1.15,2014-12-27 22:57:00,
2014-12-27 17:02:00,36.4,34.8,30.25,West,267,10.0,-999.0,94,0.00,,,0.20,Wunderground v.1.15,2014-12-27 23:02:00,
2014-12-27 17:07:00,36.2,34.6,30.25,West,269,9.0,-999.0,94,0.00,,,0.20,Wunderground v.1.15,2014-12-27 23:07:00,
2014-12-27 17:12:00,36.1,34.5,30.25,WNW,285,9.0,-999.0,94,0.00,,,0.20,Wunderground v.1.15,2014-12-27 23:12:00,
2014-12-27 17:17:00,35.9,34.3,30.25,WNW,288,7.0,-999.0,94,0.00,,,0.20,Wunderground v.1.15,2014-12-27 23:17:00,
2014-12-27 17:22:00,35.8,34.2,30.25,WNW,294,6.0,-999.0,94,0.00,,,0.20,Wunderground v.1.15,2014-12-27 23:22:00,
2014-12-27 17:27:00,35.7,34.1,30.25,WNW,296,8.0,-999.0,94,0.00,,,0.20,Wunderground v.1.15,2014-12-27 23:27:00,
2014-12-27 17:32:00,35.7,33.9,30.26,WNW,284,5.0,-999.0,93,0.00,,,0.20,Wunderground v.1.15,2014-12-27 23:32:00,
2014-12-27 17:37:00,35.6,33.8,30.26,WNW,299,6.0,-999.0,93,0.00,,,0.21,Wunderground v.1.15,2014-12-27 23:37:00,
2014-12-27 17:42:00,35.5,33.7,30.26,West,277,9.0,-999.0,93,0.00,,,0.21,Wunderground v.1.15,2014-12-27 23:42:00,
2014-12-27 17:47:00,35.5,33.9,30.27,NW,309,7.0,-999.0,94,0.00,,,0.21,Wunderground v.1.15,2014-12-27 23:47:00,
2014-12-27 17:52:00,35.4,33.8,30.27,West,276,6.0,-999.0,94,0.00,,,0.21,Wunderground v.1.15,2014-12-27 23:52:00,
2014-12-27 17:57:00,35.3,33.5,30.27,West,264,9.0,-999.0,93,0.00,,,0.21,Wunderground v.1.15,2014-12-27 23:57:00,
2014-12-27 18:02:00,35.2,33.4,30.28,West,275,6.0,-999.0,93,0.00,,,0.21,Wunderground v.1.15,2014-12-28 00:02:00,
2014-12-27 18:07:00,35.0,33.2,30.29,WNW,300,6.0,-999.0,93,0.00,,,0.21,Wunderground v.1.15,2014-12-28 00:07:00,
2014-12-27 18:12:00,34.9,33.1,30.29,West,260,6.0,-999.0,93,0.00,,,0.21,Wunderground v.1.15,2014-12-28 00:12:00,
2014-12-27 18:17:00,34.9,33.1,30.29,West,275,4.0,-999.0,93,0.00,,,0.21,Wunderground v.1.15,2014-12-28 00:17:00,
2014-12-27 18:22:00,34.9,33.1,30.29,WNW,294,8.0,-999.0,93,0.00,,,0.21,Wunderground v.1.15,2014-12-28 00:22:00,
2014-12-27 18:27:00,34.8,33.0,30.29,West,276,7.0,-999.0,93,0.00,,,0.21,Wunderground v.1.15,2014-12-28 00:27:00,
2014-12-27 18:32:00,34.8,33.0,30.29,WNW,293,7.0,-999.0,93,0.00,,,0.21,Wunderground v.1.15,2014-12-28 00:32:00,
2014-12-27 18:37:00,34.8,33.0,30.29,WNW,292,5.0,-999.0,93,0.00,,,0.21,Wunderground v.1.15,2014-12-28 00:37:00,
2014-12-27 18:42:00,34.8,33.2,30.29,West,263,5.0,-999.0,94,0.00,,,0.21,Wunderground v.1.15,2014-12-28 00:42:00,
2014-12-27 18:47:00,34.7,32.9,30.28,WNW,288,5.0,-999.0,93,0.00,,,0.21,Wunderground v.1.15,2014-12-28 00:47:00,
2014-12-27 18:52:00,34.7,32.9,30.29,West,261,4.0,-999.0,93,0.00,,,0.21,Wunderground v.1.15,2014-12-28 00:52:00,
2014-12-27 18:57:00,34.7,32.9,30.28,West,264,5.0,-999.0,93,0.00,,,0.21,Wunderground v.1.15,2014-12-28 00:57:00,
2014-12-27 19:02:00,34.7,32.9,30.28,West,265,3.0,-999.0,93,0.00,,,0.21,Wunderground v.1.15,2014-12-28 01:02:00,
2014-12-27 19:07:00,34.6,32.8,30.27,WNW,291,5.0,-999.0,93,0.00,,,0.21,Wunderground v.1.15,2014-12-28 01:07:00,
2014-12-27 19:12:00,34.6,32.8,30.28,WSW,254,5.0,-999.0,93,0.00,,,0.21,Wunderground v.1.15,2014-12-28 01:12:00,
2014-12-27 19:17:00,34.6,32.8,30.28,West,263,8.0,-999.0,93,0.00,,,0.21,Wunderground v.1.15,2014-12-28 01:17:00,
2014-12-27 19:22:00,34.6,32.8,30.28,West,265,8.0,-999.0,93,0.00,,,0.21,Wunderground v.1.15,2014-12-28 01:22:00,
2014-12-27 19:27:00,34.5,32.7,30.28,West,276,7.0,-999.0,93,0.00,,,0.21,Wunderground v.1.15,2014-12-28 01:27:00,
2014-12-27 19:32:00,34.5,32.7,30.28,WNW,300,2.0,-999.0,93,0.00,,,0.21,Wunderground v.1.15,2014-12-28 01:32:00,
2014-12-27 19:37:00,34.5,32.7,30.28,WSW,253,6.0,-999.0,93,0.00,,,0.21,Wunderground v.1.15,2014-12-28 01:37:00,
2014-12-27 19:42:00,34.5,32.7,30.28,West,259,6.0,-999.0,93,0.00,,,0.21,Wunderground v.1.15,2014-12-28 01:42:00,
2014-12-27 19:47:00,34.5,32.7,30.29,West,275,4.0,-999.0,93,0.00,,,0.21,Wunderground v.1.15,2014-12-28 01:47:00,
2014-12-27 19:52:00,34.5,32.7,30.28,West,277,5.0,-999.0,93,0.00,,,0.21,Wunderground v.1.15,2014-12-28 01:52:00,
2014-12-27 19:57:00,34.5,32.7,30.29,West,278,5.0,-999.0,93,0.00,,,0.21,Wunderground v.1.15,2014-12-28 01:57:00,
2014-12-27 20:02:00,34.5,32.7,30.29,WNW,296,7.0,-999.0,93,0.00,,,0.21,Wunderground v.1.15,2014-12-28 02:02:00,
2014-12-27 20:07:00,34.5,32.7,30.29,West,259,6.0,-999.0,93,0.00,,,0.21,Wunderground v.1.15,2014-12-28 02:07:00,
2014-12-27 20:12:00,34.4,32.3,30.29,WNW,294,5.0,-999.0,92,0.00,,,0.21,Wunderground v.1.15,2014-12-28 02:12:00,
2014-12-27 20:17:00,34.4,32.6,30.29,West,277,6.0,-999.0,93,0.00,,,0.21,Wunderground v.1.15,2014-12-28 02:17:00,
2014-12-27 20:22:00,34.4,32.3,30.29,SW,236,6.0,-999.0,92,0.00,,,0.21,Wunderground v.1.15,2014-12-28 02:22:00,
2014-12-27 20:27:00,34.4,32.3,30.29,West,269,4.0,-999.0,92,0.00,,,0.21,Wunderground v.1.15,2014-12-28 02:27:00,
2014-12-27 20:32:00,34.4,32.3,30.29,West,268,5.0,-999.0,92,0.00,,,0.21,Wunderground v.1.15,2014-12-28 02:32:00,
2014-12-27 20:37:00,34.4,32.6,30.29,West,281,5.0,-999.0,93,0.00,,,0.21,Wunderground v.1.15,2014-12-28 02:37:00,
2014-12-27 20:42:00,34.4,32.3,30.30,WNW,284,4.0,-999.0,92,0.00,,,0.21,Wunderground v.1.15,2014-12-28 02:42:00,
2014-12-27 20:47:00,34.3,32.5,30.30,West,273,6.0,-999.0,93,0.00,,,0.21,Wunderground v.1.15,2014-12-28 02:47:00,
2014-12-27 20:52:00,34.3,32.5,30.30,WSW,247,6.0,-999.0,93,0.00,,,0.21,Wunderground v.1.15,2014-12-28 02:52:00,
2014-12-27 20:57:00,34.3,32.5,30.30,West,273,6.0,-999.0,93,0.00,,,0.21,Wunderground v.1.15,2014-12-28 02:57:00,
2014-12-27 21:02:00,34.2,32.4,30.30,West,263,6.0,-999.0,93,0.00,,,0.21,Wunderground v.1.15,2014-12-28 03:02:00,
2014-12-27 21:07:00,34.2,32.4,30.31,West,274,7.0,-999.0,93,0.00,,,0.21,Wunderground v.1.15,2014-12-28 03:07:00,
2014-12-27 21:12:00,34.2,32.4,30.31,West,279,5.0,-999.0,93,0.00,,,0.21,Wunderground v.1.15,2014-12-28 03:12:00,
2014-12-27 21:17:00,34.2,32.4,30.30,West,276,6.0,-999.0,93,0.00,,,0.21,Wunderground v.1.15,2014-12-28 03:17:00,
2014-12-27 21:22:00,34.1,32.3,30.30,West,268,7.0,-999.0,93,0.00,,,0.21,Wunderground v.1.15,2014-12-28 03:22:00,
2014-12-27 21:27:00,34.1,32.3,30.30,WNW,294,4.0,-999.0,93,0.00,,,0.21,Wunderground v.1.15,2014-12-28 03:27:00,
2014-12-27 21:32:00,34.0,32.2,30.30,West,268,6.0,-999.0,93,0.00,,,0.21,Wunderground v.1.15,2014-12-28 03:32:00,
2014-12-27 21:37:00,34.0,31.9,30.30,West,259,5.0,-999.0,92,0.00,,,0.21,Wunderground v.1.15,2014-12-28 03:37:00,
2014-12-27 21:42:00,33.9,31.8,30.30,West,271,5.0,-999.0,92,0.00,,,0.21,Wunderground v.1.15,2014-12-28 03:42:00,
2014-12-27 21:47:00,33.9,31.8,30.30,WSW,258,4.0,-999.0,92,0.00,,,0.21,Wunderground v.1.15,2014-12-28 03:47:00,
2014-12-27 21:52:00,33.9,31.8,30.30,WSW,251,5.0,-999.0,92,0.00,,,0.21,Wunderground v.1.15,2014-12-28 03:52:00,
2014-12-27 21:57:00,33.8,31.7,30.30,West,263,5.0,-999.0,92,0.00,,,0.21,Wunderground v.1.15,2014-12-28 03:57:00,
2014-12-27 22:02:00,33.8,31.7,30.30,West,265,6.0,-999.0,92,0.00,,,0.21,Wunderground v.1.15,2014-12-28 04:02:00,
2014-12-27 22:07:00,33.7,31.6,30.31,WSW,254,6.0,-999.0,92,0.00,,,0.21,Wunderground v.1.15,2014-12-28 04:07:00,
2014-12-27 22:12:00,33.7,31.6,30.31,WSW,253,7.0,-999.0,92,0.00,,,0.21,Wunderground v.1.15,2014-12-28 04:12:00,
2014-12-27 22:17:00,33.7,31.4,30.31,WNW,284,6.0,-999.0,91,0.00,,,0.21,Wunderground v.1.15,2014-12-28 04:17:00,
2014-12-27 22:22:00,33.7,31.4,30.31,West,271,6.0,-999.0,91,0.00,,,0.21,Wunderground v.1.15,2014-12-28 04:22:00,
2014-12-27 22:27:00,33.7,31.4,30.31,West,264,5.0,-999.0,91,0.00,,,0.21,Wunderground v.1.15,2014-12-28 04:27:00,
2014-12-27 22:32:00,33.6,31.3,30.31,West,266,5.0,-999.0,91,0.00,,,0.21,Wunderground v.1.15,2014-12-28 04:32:00,
2014-12-27 22:37:00,33.6,31.3,30.31,West,279,6.0,-999.0,91,0.00,,,0.21,Wunderground v.1.15,2014-12-28 04:37:00,
2014-12-27 22:42:00,33.6,31.3,30.32,West,269,5.0,-999.0,91,0.00,,,0.21,Wunderground v.1.15,2014-12-28 04:42:00,